Location: Aranbee
(34.0885°N, 118.2342°W)
Time: 13:07:56
(UTC+00:00)

Tiros 1 - Pass Details

Date: 04 December 2020
Orbit: 630 x 663 km, 48.4° (Epoch: 21 January)

Event Time Altitude Azimuth Distance (km) Brightness Sun altitude
Rises 20:19:05 0° 232° (SW) 2,973 11.2 32.9°
Reaches altitude 10° 20:21:25 10° 233° (SW) 2,067 10.5 32.8°
Maximum altitude 20:26:12 84° 322° (NW) 669 7.7 32.6°
Drops below altitude 10° 20:31:02 10° 51° (NE) 2,080 9.4 32.4°
Sets 20:33:23 0° 52° (NE) 2,994 10.2 32.3°
